TimeEDT,TemperatureF,Dew PointF,Humidity,Sea Level PressureIn,VisibilityMPH,Wind Direction,Wind SpeedMPH,Gust SpeedMPH,PrecipitationIn,Events,Conditions,WindDirDegrees,DateUTC
12:56 AM,52.0,25.0,35,30.01,10.0,South,10.4,20.7,N/A,,Clear,170,2013-03-11 04:56:00
1:56 AM,51.8,26.6,38,29.99,10.0,South,10.4,19.6,N/A,,Clear,180,2013-03-11 05:56:00
2:56 AM,51.8,24.8,35,29.99,10.0,South,9.2,18.4,N/A,,Clear,170,2013-03-11 06:56:00
3:56 AM,51.1,25.0,36,29.99,10.0,South,8.1,-,N/A,,Clear,190,2013-03-11 07:56:00
4:56 AM,50.0,25.0,38,29.97,10.0,Variable,3.5,-,N/A,,Clear,0,2013-03-11 08:56:00
5:56 AM,50.0,25.0,38,29.97,10.0,South,3.5,-,N/A,,Partly Cloudy,170,2013-03-11 09:56:00
6:56 AM,48.9,26.1,41,29.96,10.0,Calm,Calm,-,N/A,,Mostly Cloudy,0,2013-03-11 10:56:00
7:56 AM,50.0,27.0,41,29.97,10.0,SSW,6.9,-,N/A,,Mostly Cloudy,210,2013-03-11 11:56:00
8:56 AM,50.0,27.0,41,29.98,10.0,South,8.1,-,N/A,,Mostly Cloudy,170,2013-03-11 12:56:00
9:56 AM,50.0,27.0,41,29.96,10.0,South,11.5,18.4,N/A,,Overcast,170,2013-03-11 13:56:00
10:56 AM,52.0,28.9,41,29.95,10.0,South,10.4,18.4,0.00,Rain,Light Rain,170,2013-03-11 14:56:00
11:56 AM,51.1,28.0,41,29.94,10.0,South,11.5,18.4,N/A,,Scattered Clouds,170,2013-03-11 15:56:00
12:56 PM,53.1,28.9,40,29.94,10.0,South,13.8,20.7,N/A,,Clear,170,2013-03-11 16:56:00
1:56 PM,55.0,30.0,38,29.90,10.0,SSE,11.5,18.4,N/A,,Clear,160,2013-03-11 17:56:00
2:56 PM,55.9,30.0,37,29.85,10.0,SSE,12.7,21.9,N/A,,Clear,160,2013-03-11 18:56:00
3:56 PM,55.9,30.9,39,29.83,10.0,South,13.8,26.5,N/A,,Clear,170,2013-03-11 19:56:00
4:56 PM,55.0,30.0,38,29.81,10.0,South,9.2,20.7,N/A,,Mostly Cloudy,170,2013-03-11 20:56:00
5:56 PM,54.0,30.0,40,29.81,10.0,South,15.0,27.6,N/A,,Overcast,170,2013-03-11 21:56:00
6:56 PM,53.1,28.9,40,29.75,10.0,SSE,11.5,32.2,N/A,,Mostly Cloudy,160,2013-03-11 22:56:00
7:56 PM,53.1,28.9,40,29.75,10.0,South,15.0,25.3,N/A,,Scattered Clouds,170,2013-03-11 23:56:00
8:56 PM,53.1,30.0,41,29.77,10.0,South,13.8,33.4,0.00,Rain,Light Rain,180,2013-03-12 00:56:00
9:56 PM,48.9,39.0,69,29.75,10.0,SSE,20.7,32.2,0.03,Rain,Light Rain,160,2013-03-12 01:56:00
10:56 PM,51.1,39.9,66,29.74,10.0,SSE,18.4,27.6,0.01,Rain,Light Rain,160,2013-03-12 02:56:00
11:56 PM,52.0,39.9,63,29.73,10.0,SSE,16.1,29.9,0.00,Rain,Light Rain,160,2013-03-12 03:56:00